Vorticity
14 10 4 8 5 3 3 2 2 2 2 2 2 2 3 4 7 7 7 7 7 8
6 8 9 6 4 3 2 2 2 2 2 2 2 2 3 5 8 7 8 8 9 10
9 7 10 4 1 2 2 2 2 1 1 2 2 3 4 6 7 9 9 8 10 8
9 10 5 2 2 1 2 1 1 1 2 3 3 4 5 7 9 9 9 10 8 8
9 7 3 1 1 2 2 1 1 2 3 3 5 5 6 8 10 9 11 8 8 7
8 5 2 2 2 2 2 2 3 3 3 6 5 6 7 10 9 10 9 8 8 7
7 4 2 2 2 2 2 3 3 4 7 3 6 8 10 9 10 9 8 8 7 8
5 3 2 2 2 3 3 4 5 8 0 9 8 10 10 10 9 8 7 8 8 9
5 3 3 3 3 3 5 7 9 1 9 8 10 10 10 9 7 7 8 8 9 10
4 4 3 3 4 7 9 9 3 9 9 9 11 10 8 7 7 9 8 9 9 9
4 3 4 7 10 10 8 5 9 9 9 11 9 8 7 8 9 8 9 9 10 9
5 7 9 11 9 6 8 8 9 10 11 9 8 7 8 8 8 9 9 9 10 16
10 12 10 6 7 8 9 8 11 9 8 7 7 7 9 8 8 8 6 12 19 23
8 6 7 8 9 8 9 10 9 8 7 7 8 8 7 8 7 9 13 19 22 18
Height
3070 3072 3075 3077 3079 3081 3082 3083 3083 3083 3082 3079 3076 3073 3068 3064 3059 3054 3049 3044 3039 3034
3066 3068 3070 3073 3075 3077 3078 3079 3078 3078 3076 3073 3070 3065 3061 3056 3051 3046 3040 3035 3030 3024
3060 3064 3067 3069 3072 3073 3074 3073 3073 3072 3069 3066 3062 3058 3053 3047 3043 3037 3031 3025 3020 3015
3056 3059 3063 3065 3067 3068 3068 3068 3067 3065 3062 3058 3054 3049 3044 3039 3033 3028 3022 3016 3010 3005
3052 3055 3058 3061 3063 3063 3063 3062 3060 3058 3055 3050 3045 3040 3035 3030 3024 3018 3013 3007 3002 2995
3049 3051 3054 3056 3057 3058 3057 3055 3053 3050 3046 3042 3037 3031 3026 3020 3014 3009 3003 2997 2991 2984
3045 3048 3049 3051 3052 3051 3050 3048 3046 3042 3038 3033 3028 3023 3017 3010 3005 3000 2994 2987 2979 2972
3041 3043 3045 3046 3045 3045 3043 3041 3037 3033 3029 3024 3019 3013 3007 3001 2996 2990 2984 2977 2969 2961
3037 3039 3039 3040 3039 3038 3035 3032 3029 3025 3020 3015 3010 3004 2999 2992 2987 2979 2972 2965 2958 2949
3032 3033 3034 3033 3032 3030 3027 3024 3020 3016 3012 3006 3001 2996 2990 2983 2976 2969 2962 2954 2946 2937
3027 3028 3028 3026 3024 3022 3019 3016 3012 3007 3003 2998 2993 2987 2980 2973 2966 2959 2950 2942 2934 2925
3022 3022 3021 3019 3017 3015 3012 3008 3004 2999 2994 2990 2984 2977 2970 2963 2955 2947 2939 2933 2923 2914
3016 3016 3014 3013 3011 3008 3004 3000 2996 2991 2986 2979 2974 2967 2961 2952 2943 2937 2929 2920 2911 2903
3011 3010 3008 3006 3003 3000 2996 2992 2989 2984 2977 2972 2965 2957 2950 2943 2935 2925 2915 2908 2902 2895